Regional Weather Roundup
Issued by NWS

Home | Current Version | Previous Version | Text Only | Print | Product List | Glossary Off
Versions: 1 2 3 4 5 6 7 8 9 10 11 12 13 14 15 16 17 18 19 20 21 22 23 24 25 26 27 28 29 30 31 32 33 34 35 36 37 38 39 40 41 42 43 44 45 46 47 48 49 50

000
ASUS45 KTFX 230904
RWRMT
MONTANA HOURLY WEATHER ROUNDUP
NATIONAL WEATHER SERVICE GREAT FALLS MT
204 AM MST SUN NOV 23 2014

NOTE: "FAIR" INDICATES FEW OR NO CLOUDS BELOW 12000 FEET WITH NO
SIGNIFICANT WEATHER AND/OR OBSTRUCTIONS TO VISIBILITY.

* THESE STATIONS ARE NOT UNDER NWS QUALITY CONTROL. THEY DO NOT
   REPORT WEATHER SUCH AS PRECIPITATION OR FOG.

MTZ001>007-043-231000-
WEST OF THE DIVIDE
CITY           SKY/WX    TMP DP  RH WIND       PRES   REMARKS
KALISPELL      CLOUDY    30  25  82 E3        29.85R
MISSOULA       MOCLDY    34  28  79 NW14      29.91R WCI  24
BUTTE          LGT SNOW  27  25  92 NW7       29.83R VSB 2    WCI  19
MULLAN PASS    FOG       25  23  92 NW7       29.88R VSB 1/2  WCI  17
* LINCOLN      N/A       31  22  69 W5G15      N/A   WCI  26
* LOOKOUT PASS N/A       29  28  96 NE7G12     N/A   WCI  22
* POLSON       N/A       33  22  64 E4G9       N/A
* RONAN APT    MOCLDY    36  27  70 N/A        N/A
* SEELEY LAKE  N/A       33  23  67 NW8G17     N/A   WCI  26
* THOMP F APT  MOCLDY    21  14  74 N4G11      N/A
* YAAK HILL    N/A       29  25  85 NE2        N/A
$$

MTZ008-052>055-231000-
SOUTHWEST MONTANA
CITY           SKY/WX    TMP DP  RH WIND       PRES   REMARKS
BOZEMAN        MOCLDY    30  27  89 SW12      29.82R WCI  20
DILLON         MOCLDY    25  19  78 S10       29.84R WCI  15
* W YELLOWSTON CLOUDY    22  20  92 SW4G9      N/A
* ENNIS APT    MOCLDY    28  19  69 NW5        N/A   WCI  22
* THREE FORKS  MOCLDY    32  32 100 W11        N/A   WCI  23
* BOULDER HILL N/A       29  12  49 NE4G12     N/A
* MONIDA PASS  N/A       22  19  88 NW17       N/A   WCI   8
* RAYNOLDS PAS N/A       17  -1  45 SE6        N/A   WCI   8
* WHITEHALL    N/A       31  28  89 W9G19      N/A   WCI  23
* WISE RIVER   N/A       26  23  88 W7         N/A   WCI  18
$$

MTZ009>010-012-014-046-048-049-054-231000-
EAST SLOPES AND CENTRAL MONTANA
CITY           SKY/WX    TMP DP  RH WIND       PRES   REMARKS
CUT BANK       PTCLDY    27  19  72 W13       29.71R WCI  16
GREAT FALLS    CLOUDY    32  19  59 SW13      29.73R WCI  22
HELENA         PTCLDY    36  23  59 W23G32    29.76F WCI  24
MALMSTROM AFB  MOCLDY    36  19  50 W13G23    29.76R WCI  27
* DEARBORN     N/A       30  19  64 SW2        N/A
* EAST GLACIER N/A       29  20  69 NW12       N/A   WCI  19
* MONARCH      N/A       29  12  49 W17G31     N/A   WCI  17
* PENDROY      N/A       30  17  58 NW14G19    N/A   WCI  19
* ROGERS PASS  N/A       26  20  78 SE12G26    N/A   WCI  15
* SAINT MARY   N/A       31  18  59 SW6G17     N/A   WCI  25
* SWEET GRASS  N/A       30  30 100 NW6        N/A   WCI  24
$$

MTZ011-013-016-021-035-040-045-047-050-051-231000-
NORTH CENTRAL MONTANA
CITY           SKY/WX    TMP DP  RH WIND       PRES   REMARKS
HAVRE          CLOUDY    36  28  73 W18G29    29.70R WCI  26
LEWISTOWN      MOCLDY    34  18  52 W21G31    29.68R WCI  22
* N BAR RANCH  CLOUDY    32  16  52 NW20G25   29.66R WCI  20
* CHESTER      N/A       32  30  92 NW8G13     N/A   WCI  25
* DENTON       N/A       36  17  46 W19G24     N/A   WCI  25
* GEYSER       N/A       33  14  45 W14G22     N/A   WCI  23
* JUDITH GAP   N/A       33  14  45 W19G32     N/A   WCI  22
* LOMA         N/A       37  23  57 W8G20      N/A   WCI  31
$$

MTZ017>020-022>027-061-062-231000-
NORTHEAST MONTANA
CITY           SKY/WX    TMP DP  RH WIND       PRES   REMARKS
GLASGOW        CLOUDY    34  23  64 NW28G44   29.50R WCI  21
GLENDIVE       CLOUDY    36  28  73 W29G37    29.45S WCI  23
JORDAN         PTCLDY    36  28  73 W23G33    29.56R WCI  24
SIDNEY         CLOUDY    39  28  65 W22G36    29.41R WCI  29
WOLF POINT     CLOUDY    36  25  64 NW29G40   29.48R WCI  23
* BEAVER HILL  N/A       35  29  79 SW21G33    N/A   WCI  24
* CIRCLE       N/A       38  30  73 W19G28     N/A   WCI  28
* LINDSAY DVD  N/A       34  29  82 W29G38     N/A   WCI  20
* NAVAJO       N/A       26  19  75 NW31G46    N/A   WCI   9
* SACO         N/A       33  25  72 W22G38     N/A   WCI  21
$$

MTZ028>042-056>058-231000-
SOUTHCENTRAL AND SOUTHEAST MONTANA
CITY           SKY/WX    TMP DP  RH WIND       PRES   REMARKS
BAKER          CLEAR     36  27  70 W20G29    29.51R WCI  25
BILLINGS       PTCLDY    36  16  44 W15       29.71R WCI  27
LIVINGSTON     CLOUDY    32  25  75 SW18G29   29.76R WCI  21
MILES CITY     CLOUDY    37  25  62 W30G36    29.58R WCI  24
* LAUREL APT   PTCLDY    39  12  33 W17G23     N/A   WCI  30
* ALZADA       N/A       33  24  70 W11        N/A   WCI  24
* HYSHAM       N/A       35  14  42 W6         N/A   WCI  30
* LAME DEER    N/A       34  16  48 W12        N/A   WCI  25
* REED POINT   N/A       39  17  41 W17G26     N/A   WCI  30
* ROSCOE HILL  N/A       31  10  41 W7G17      N/A   WCI  24
$$

REGIONAL REPORTS...DAKOTAS
CITY           SKY/WX    TMP DP  RH WIND       PRES   REMARKS
WILLISTON      CLOUDY    39  28  65 W20G32    29.36R WCI  29
DICKINSON      CLOUDY    36  30  79 W22       29.41R WCI  25
BEACH          CLOUDY    34  32  92 W20G31    29.46R WCI  23
CROSBY         CLOUDY    32  28  85 W24G30    29.31R WCI  19
BISMARCK       CLOUDY    37  36  96 W7        29.42R WCI  32
GRAND FORKS    FOG       34  30  85 SW12      29.37R WCI  25
FARGO          FOG       34  30  85 S6        29.39S VSB 3    WCI  29
BUFFALO SD     MOCLDY    36  28  73 W30G44    29.48R WCI  23
RAPID CITY     CLOUDY    41  21  45 NW15      29.58R
$$

REGIONAL REPORTS...WYOMING/IDAHO/WASHINGTON
CITY           SKY/WX    TMP DP  RH WIND       PRES   REMARKS
SHERIDAN       CLEAR     30  18  61 NW14      29.66R WCI  19
CODY           MOCLDY    36  14  40 W14G20    29.71R WCI  27
YELLOWSTONE LA CLOUDY    10   7  88 W3        29.79R
SALMON         MOCLDY    28  25  89 E5        29.94R WCI  22
MULLAN PASS    FOG       25  23  92 NW7       29.88S VSB 1/2  WCI  17
SAND POINT     CLOUDY    34  32  92 SW7G16    29.99R WCI  28
SPOKANE        PTCLDY    32  28  85 VRB5      30.02R WCI  27
$$

REGIONAL REPORTS...SASKATCHEWAN
CITY           SKY/WX    TMP DP  RH WIND       PRES   REMARKS
SWIFT CURRENT  LGT SNOW  18  16  92 NW26G33   29.50R VSB 3

$$



USA.gov is the U.S. government's official web portal to all federal, state and local government web resources and services.